[[{"header":{"parameterUnit":"m.s-1","parameterCategory":1,"la1":30.2991,"la2":30.254,"lo1":-89.0895,"lo2":-89.0444,"dy":0.0017,"dx":0.0017,"nx":28,"ny":28,"refTime":"2024-04-10T09:00:00:Z","depth":0,"parameterNumber":2,"parameterNumberName":"U-component_of_WINDS"},"data":[0,0,0,0,0,0,0,0,0,0,0,0,0,0,0,0,0,0,0,0,0,0,0,0,0,0,0,0,0,0,0,0,0,0,0,0,0,0,0,0,0,0,0,0,0,0,0,0,0,0,0,0,0,0,0,0,0,0,-7.3481,-7.3482,0,-7.3577,-7.3578,-7.3579,-7.3528,-7.3526,-7.3523,-7.3521,-7.3614,-7.3619,-7.3624,0,0,0,0,0,0,0,0,0,0,0,0,0,-7.3252,-7.3256,-7.3481,-7.3482,-7.3484,-7.3577,-7.3578,-7.3579,-7.3529,-7.3526,-7.3522,-7.352,-7.3613,-7.3618,-7.3624,0,0,0,0,0,0,0,0,0,0,0,0,0,-7.335,-7.3258,-7.3481,-7.347,-7.347,-7.3576,-7.3578,-7.358,-7.3529,-7.3525,-7.3522,-7.3518,-7.3611,-7.3618,-7.3625,-7.3747,0,0,-7.3647,-7.365,0,0,0,0,0,0,0,0,-7.3344,-7.3358,-7.347,-7.3471,-7.3471,-7.3537,-7.3531,-7.3635,-7.353,-7.3507,-7.3521,-7.3516,-7.3591,-7.36,-7.3626,-7.3751,-7.3755,-7.3648,-7.3652,-7.3656,-7.3658,0,0,0,0,0,0,0,-7.3337,-7.3354,-7.3519,-7.3472,-7.3472,-7.3459,-7.3468,-7.3551,-7.3569,-7.3508,-7.3505,-7.3517,-7.3591,-7.3619,-7.3628,-7.3757,-7.3648,-7.3654,-7.3659,-7.3662,-7.3986,-7.399,0,0,0,0,0,0,-7.3332,-7.3348,-7.3516,-7.3522,-7.3397,-7.3466,-7.3477,-7.3519,-7.3568,-7.3572,-7.352,-7.3514,-7.3609,-7.3619,-7.3631,-7.3775,-7.3655,-7.3662,-7.3667,-7.3982,-7.3987,-7.3991,0,0,0,0,0,0,-7.3327,-7.3347,-7.3512,-7.3434,-7.3454,-7.3474,-7.3522,-7.3523,-7.3552,-7.3577,-7.358,-7.3546,-7.3606,-7.3621,-7.3719,-7.3778,-7.3666,-7.3672,-7.3977,-7.3983,-7.3989,-7.4066,0,0,0,0,0,0,-7.3321,-7.3346,-7.3393,-7.3436,-7.3459,-7.3599,-7.3526,-7.3528,-7.3565,-7.3558,-7.3602,-7.3606,-7.3604,-7.3708,-7.3726,-7.3786,-7.3678,-7.3971,-7.398,-7.3987,-7.4058,-7.4074,-7.4088,0,0,0,0,0,-7.3313,-7.341,-7.3395,-7.3416,-7.3518,-7.3602,-7.3615,-7.3612,-7.357,-7.3617,-7.3633,-7.3604,-7.377,-7.3718,-7.3738,-7.3801,-7.3968,-7.3977,-7.3987,-7.4051,-7.4071,-7.4087,0,0,0,0,0,0,-7.3371,-7.3415,-7.3399,-7.3514,-7.3555,-7.3594,-7.3652,-7.3633,-7.3686,-7.3677,-7.3671,-7.3681,-7.3783,-7.3802,-7.3745,-7.3922,-7.3862,-7.3876,-7.3904,-7.3923,-7.3938,-7.3929,-7.3684,0,0,0,0,0,-7.3398,-7.3464,-7.3498,-7.3596,-7.3618,-7.3632,-7.3668,-7.3663,-7.3705,-7.3722,-7.3745,-7.3786,-7.3847,-7.3887,-7.3944,-7.4062,-7.407,-7.4116,-7.4131,-7.4143,-7.4153,-7.4216,-7.4235,-7.4023,-7.4023,-7.4022,0,0,-7.3452,-7.3485,-7.3526,-7.3608,-7.3639,-7.3707,-7.3646,-7.372,-7.3769,-7.3732,-7.3825,-7.3845,-7.389,-7.3998,-7.4047,-7.4018,-7.4215,-7.4155,-7.4164,-7.4168,-7.4227,-7.4247,-7.4265,-7.4029,-7.4028,-7.4027,0,0,-7.3585,-7.3618,-7.3701,-7.3735,-7.3784,-7.3793,-7.3814,-7.3856,-7.3868,-7.3963,-7.3936,-7.3995,-7.41,-7.4133,-7.4163,-7.4312,-7.4287,-7.4332,-7.4407,-7.4468,-7.4485,-7.45,-7.455,-7.4568,-7.4343,-7.4343,-7.4344,0,-7.3646,-7.3747,-7.3746,-7.3823,-7.3859,-7.3832,-7.3915,-7.3948,-7.4012,-7.4037,-7.4005,-7.4137,-7.4165,-7.428,-7.4317,-7.4344,-7.4365,-7.4324,-7.4483,-7.4498,-7.4511,-7.4559,-7.4578,-7.4348,-7.4348,-7.4347,-7.4347,0,-7.3818,-7.3889,-7.3951,-7.4016,-7.406,-7.414,-7.415,-7.4195,-7.4187,-7.42,-7.4296,-7.433,-7.4393,-7.4421,-7.4414,-7.4535,-7.4515,-7.4484,-7.4422,-7.4536,-7.4581,-7.46,-7.4355,-7.4353,-7.4352,-7.4351,0,0,-7.3986,-7.4052,-7.4074,-7.4103,-7.4157,-7.4211,-7.429,-7.4354,-7.4391,-7.4438,-7.4502,-7.4594,-7.4565,-7.46,-7.4596,-7.465,-7.4763,-7.4611,-7.4612,-7.4635,-7.4896,-7.4917,-7.4938,-7.4749,-7.4753,-7.4755,-7.4891,0,-7.4119,-7.4258,-7.4261,-7.4387,-7.4452,-7.4429,-7.4497,-7.4537,-7.4552,-7.4608,-7.4625,-7.4688,-7.4647,-7.4667,-7.4721,-7.4738,-7.4815,-7.4729,-7.4806,-7.4808,-7.4791,-7.4962,-7.4984,-7.5111,-7.4909,-7.4912,-7.4914,0,-7.4293,-7.4347,-7.448,-7.4525,-7.4552,-7.4613,-7.4672,-7.4727,-7.4772,-7.4779,-7.482,-7.4809,-7.4888,-7.4829,-7.4937,-7.4879,-7.4911,-7.4925,-7.493,-7.4933,-7.4865,-7.4966,-7.5151,-7.5169,-7.4943,-7.494,-7.4938,0,-7.4398,-7.4504,-7.4597,-7.4623,-7.4678,-7.4722,-7.4747,-7.4788,-7.4827,-7.4879,-7.4903,-7.4964,-7.4996,-7.5042,-7.5048,-7.5004,-7.5156,-7.5097,-7.5161,-7.5161,-7.519,-7.5187,-7.5379,-7.5219,-7.5218,-7.5218,-7.5217,0,-7.4544,-7.4625,-7.4645,-7.4701,-7.4792,-7.4796,-7.4885,-7.4906,-7.4944,-7.5003,-7.4988,-7.5044,-7.505,-7.5108,-7.5113,-7.52,-7.5216,-7.5222,-7.5222,-7.5221,-7.522,-7.5238,-7.5228,-7.5223,-7.5222,-7.5221,-7.522,0,-7.4674,-7.4691,-7.479,-7.4836,-7.4849,-7.4913,-7.4951,-7.5005,-7.5021,-7.5096,-7.5114,-7.5137,-7.5204,-7.5216,-7.5295,-7.5299,-7.5402,-7.5395,-7.5387,-7.5384,-7.5447,-7.5439,-7.5653,-7.568,-7.5506,-7.5508,-7.5509,0,-7.4764,-7.4826,-7.4879,-7.4919,-7.4946,-7.5011,-7.505,-7.5057,-7.5099,-7.5156,-7.5203,-7.5269,-7.5322,-7.543,-7.5453,-7.5514,-7.5505,-7.5576,-7.5513,-7.5511,-7.5502,-7.5496,-7.5501,-7.5586,-7.5588,-7.559,-7.5591,0,-7.4921,-7.4927,-7.4985,-7.5047,-7.5096,-7.5144,-7.5191,-7.5224,-7.5237,-7.5285,-7.5354,-7.5396,-7.5477,-7.5542,-7.5603,-7.5627,-7.5611,-7.5612,-7.5629,-7.5626,-7.5618,-7.562,-7.5415,-7.5605,-7.5604,-7.5603,-7.5602,-7.5601,-7.5031,-7.5085,-7.5131,-7.5196,-7.5233,-7.5277,-7.5329,-7.5352,-7.5411,-7.5478,-7.548,-7.5555,-7.5599,-7.5679,-7.5708,-7.5766,-7.5743,-7.5769,-7.5775,-7.578,-7.5784,-7.5613,-7.5778,-7.5778,-7.5777,-7.5777,-7.5777,0,-7.5184,-7.5213,-7.5274,-7.534,-7.5392,-7.5376,-7.5426,-7.547,-7.5537,-7.5581,-7.5634,-7.5713,-7.5777,-7.5807,-7.5869,-7.591,-7.5904,-7.5926,-7.5921,-7.5926,-7.5803,-7.578,-7.593,-7.593,-7.593,-7.593,-7.593,-7.593,-7.5269,-7.5359,-7.5371,-7.5478,-7.5507,-7.5582,-7.5612,-7.5652,-7.5687,-7.5777,-7.583,-7.585,-7.5888,-7.5953,-7.6011,-7.6018,-7.604,-7.6064,-7.6067,-7.5951,-7.5935,-7.592,-7.5898,-7.607,-7.607,-7.6185,-7.6186,-7.6187]},{"header":{"parameterUnit":"m.s-1","parameterCategory":1,"la1":30.2991,"la2":30.254,"lo1":-89.0895,"lo2":-89.0444,"dy":0.0017,"dx":0.0017,"nx":28,"ny":28,"refTime":"2024-04-10T09:00:00:Z","depth":0,"parameterNumber":3,"parameterNumberName":"V-component_of_WINDS"},"data":[0,0,0,0,0,0,0,0,0,0,0,0,0,0,0,0,0,0,0,0,0,0,0,0,0,0,0,0,0,0,0,0,0,0,0,0,0,0,0,0,0,0,0,0,0,0,0,0,0,0,0,0,0,0,0,0,0,0,4.0296,4.0297,0,4.0376,4.0377,4.0377,4.034,4.0338,4.0336,4.0334,4.0413,4.0417,4.0421,0,0,0,0,0,0,0,0,0,0,0,0,0,4.0113,4.0116,4.0296,4.0297,4.0298,4.0376,4.0377,4.0378,4.034,4.0338,4.0335,4.0333,4.0412,4.0417,4.0421,0,0,0,0,0,0,0,0,0,0,0,0,0,4.0192,4.0117,4.0296,4.0289,4.0289,4.0375,4.0377,4.0378,4.0341,4.0338,4.0334,4.0332,4.041,4.0416,4.0422,4.052,0,0,4.044,4.0443,0,0,0,0,0,0,0,0,4.0188,4.0199,4.0289,4.029,4.029,4.0345,4.0341,4.0425,4.0341,4.0321,4.0334,4.033,4.0393,4.04,4.0421,4.0523,4.0527,4.0441,4.0445,4.0447,4.0449,0,0,0,0,0,0,0,4.0182,4.0195,4.0328,4.029,4.0291,4.0282,4.029,4.0357,4.0373,4.0322,4.032,4.033,4.0392,4.0416,4.0423,4.0528,4.0441,4.0446,4.045,4.0452,4.0717,4.072,0,0,0,0,0,0,4.0177,4.0191,4.0325,4.033,4.023,4.0288,4.0296,4.033,4.0372,4.0375,4.0332,4.0328,4.0407,4.0416,4.0426,4.0545,4.0447,4.0453,4.0456,4.0714,4.0718,4.0721,0,0,0,0,0,0,4.0173,4.0189,4.0322,4.026,4.0276,4.0294,4.0332,4.0333,4.0357,4.038,4.0382,4.0353,4.0405,4.0417,4.0497,4.0547,4.0455,4.0461,4.0709,4.0715,4.072,4.0783,0,0,0,0,0,0,4.0168,4.0188,4.0225,4.0261,4.028,4.0392,4.0335,4.0337,4.0367,4.0362,4.04,4.0403,4.0404,4.0489,4.0503,4.0554,4.0466,4.0705,4.0712,4.0718,4.0776,4.0789,4.08,0,0,0,0,0,4.0162,4.0239,4.0227,4.0244,4.0326,4.0395,4.0406,4.0405,4.0371,4.0409,4.0424,4.0402,4.0539,4.0497,4.0513,4.0566,4.0702,4.071,4.0717,4.0771,4.0787,4.08,0,0,0,0,0,0,4.0207,4.0243,4.0231,4.0322,4.0356,4.0389,4.0436,4.0422,4.0465,4.0459,4.0456,4.0464,4.0548,4.0565,4.0518,4.0664,4.0615,4.0627,4.065,4.0666,4.0678,4.0672,4.0471,0,0,0,0,0,4.0228,4.0281,4.0309,4.0387,4.0405,4.0418,4.0448,4.0445,4.048,4.0494,4.0514,4.0549,4.06,4.0634,4.0681,4.0778,4.0787,4.0823,4.0835,4.0845,4.0855,4.091,4.0927,4.0747,4.0747,4.0747,0,0,4.0271,4.0297,4.033,4.0397,4.0423,4.0479,4.043,4.049,4.0532,4.0502,4.058,4.0597,4.0635,4.0725,4.0765,4.0742,4.0907,4.0855,4.0862,4.0867,4.092,4.0937,4.0952,4.0752,4.0751,4.075,0,0,4.0378,4.0402,4.0471,4.0499,4.054,4.0548,4.0565,4.0601,4.0611,4.0689,4.0669,4.0719,4.0806,4.0835,4.0861,4.0983,4.0965,4.0999,4.1062,4.1116,4.113,4.1143,4.1188,4.1204,4.1008,4.1009,4.1009,0,4.0426,4.0509,4.0508,4.0571,4.0602,4.0579,4.0649,4.0676,4.073,4.0752,4.0725,4.0836,4.086,4.0958,4.0988,4.1009,4.1029,4.0994,4.1128,4.1141,4.1153,4.1196,4.1213,4.1012,4.1012,4.1012,4.1011,0,4.0568,4.0626,4.0676,4.0731,4.0767,4.0834,4.0843,4.088,4.0874,4.0886,4.0967,4.0996,4.105,4.1073,4.1067,4.1171,4.1155,4.1128,4.1079,4.1174,4.1214,4.1231,4.1018,4.1017,4.1016,4.1015,0,0,4.0704,4.076,4.0778,4.0804,4.0849,4.0894,4.096,4.1014,4.1047,4.1086,4.1142,4.1218,4.1194,4.1224,4.1222,4.1269,4.1366,4.1236,4.1237,4.1261,4.1484,4.1505,4.1524,4.1354,4.1357,4.136,4.1482,0,4.0816,4.0932,4.0935,4.1041,4.1097,4.1077,4.1135,4.1169,4.1182,4.1231,4.1245,4.13,4.1264,4.1282,4.1328,4.1344,4.1411,4.1335,4.1407,4.141,4.14,4.1545,4.1567,4.1681,4.1497,4.15,4.1502,0,4.0962,4.1007,4.112,4.116,4.1183,4.1235,4.1287,4.1333,4.1372,4.1378,4.1414,4.1405,4.1473,4.1422,4.1517,4.1465,4.1495,4.1508,4.1512,4.152,4.1462,4.1558,4.1717,4.1734,4.1526,4.1524,4.1523,0,4.1053,4.1142,4.1222,4.1244,4.1291,4.1329,4.135,4.1386,4.142,4.1465,4.1487,4.1539,4.1568,4.1609,4.1615,4.1577,4.1711,4.166,4.1719,4.172,4.1749,4.1747,4.1916,4.1766,4.1766,4.1765,4.1765,0,4.1178,4.1249,4.1264,4.1313,4.1392,4.1394,4.1472,4.149,4.1523,4.1576,4.1562,4.1612,4.1616,4.1668,4.1673,4.1752,4.1764,4.1772,4.1773,4.1775,4.1774,4.1795,4.1787,4.177,4.1769,4.1768,4.1767,0,4.1293,4.1306,4.1393,4.1431,4.1443,4.1499,4.1532,4.158,4.1592,4.166,4.1676,4.1696,4.1756,4.1766,4.1836,4.184,4.1936,4.1927,4.1923,4.1922,4.1982,4.1977,4.2171,4.2198,4.2029,4.203,4.2032,0,4.1373,4.1427,4.1473,4.1508,4.1532,4.1588,4.1623,4.1627,4.1665,4.1715,4.1757,4.1816,4.1864,4.1961,4.1982,4.2036,4.203,4.2095,4.2038,4.2039,4.2034,4.2031,4.2038,4.2106,4.2108,4.2109,4.211,0,4.1515,4.1519,4.157,4.1625,4.1668,4.1711,4.1751,4.1781,4.1791,4.1833,4.1896,4.1933,4.2007,4.2066,4.2121,4.2143,4.213,4.2128,4.2145,4.2148,4.2144,4.2149,4.1954,4.2124,4.2122,4.2121,4.2121,4.212,4.1616,4.1664,4.1705,4.1763,4.1794,4.1833,4.1881,4.19,4.1953,4.2014,4.2013,4.2082,4.2122,4.2194,4.222,4.2275,4.2254,4.2278,4.2284,4.2291,4.2298,4.2135,4.2284,4.2284,4.2283,4.2283,4.2283,0,4.1758,4.1784,4.1838,4.1896,4.1943,4.1926,4.1971,4.2011,4.2073,4.2111,4.2159,4.2232,4.2291,4.2317,4.2374,4.2413,4.2409,4.2428,4.2426,4.2432,4.2312,4.2292,4.2431,4.2431,4.2431,4.2431,4.2431,4.2431,4.1838,4.192,4.1929,4.2027,4.2052,4.212,4.2148,4.2184,4.2215,4.2298,4.2347,4.2364,4.2398,4.2459,4.2512,4.2518,4.2541,4.2564,4.2568,4.2455,4.244,4.2426,4.2407,4.2569,4.2569,4.2684,4.2685,4.2686]}]]